Location: Arboyeti
(42.1122°N, 44.6017°E)
Time: 19:59:14
(UTC+00:00)

OBJECT-B - Pass Details

Date: 19 April 2021
Orbit: 414 x 423 km, 97.0° (Epoch: 16 May)

Event Time Altitude Azimuth Distance (km) Brightness Sun altitude
Exits shadow 17:28:14 - 202° (SSW) 1,619 3.6 -17.7°
Reaches altitude 10° 17:28:34 10° 205° (SSW) 1,494 3.4 -17.7°
Maximum altitude 17:31:18 26° 264° (W) 876 2.9 -18.1°
Drops below altitude 10° 17:34:04 10° 323° (NW) 1,512 4.7 -18.6°
Sets 17:36:18 0° 337° (NNW) 2,384 5.6 -18.9°
